Tacoma, WA
on Sunday, November 4, 2012

Sunday
Previous Day Next Day
Daily Summary
 ActualAverage (KSEA)Record (KSEA)
Temperature
Mean Temperature °F 48°F  
Max Temperature 66°F 54°F 74°F (1949)
Min Temperature 53°F 42°F 30°F (1957)
Degree Days
Heating Degree Days 6 17  
Month to date heating degree days 67  
Since 1 July heating degree days 664  
Cooling Degree Days 0 0  
Month to date cooling degree days 0  
Year to date cooling degree days 189  
Growing Degree Days10 (Base °F )  
Moisture
Dew Point 57°F   
Average Humidity 92    
Maximum Humidity 100    
Minimum Humidity 73    
Precipitation
Precipitation 0.11 in 0.20 in 1.91 in (2006)
Month to date precipitation 0.78  
Year to date precipitation 26.35  
Snow
Snow 0.00 in in T in (1973)
Month to date snowfall  
Since 1 July snowfall  
Snow Depth in   
Wind
Wind Speed 5 mph   
Max Wind Speed 15 mph   
Max Gust Speed 24 mph   
Visibility 8 miles   
Events Rain   

Key: T is trace of precipitation, MM is missing value
Source: NWS Daily Summary
Time(PST)TemperatureDew PointHumidity Pressure Visibility Wind DirectionWind SpeedGust SpeedPrecipitationEvents Conditions
12:08 AM 53.6°F 53.6°F 100% 30.19 in 10.0 miles ESE 1.2 mph - N/A   Overcast
12:26 AM 53.6°F 53.6°F 100% 30.19 in 8.0 miles SE 1.2 mph - N/A   Overcast
12:27 AM 53.6°F 53.6°F 100% 30.19 in 7.0 miles ESE 1.2 mph - N/A   Light Drizzle
12:32 AM 55.4°F 53.6°F 94% 30.19 in 4.0 miles ESE 2.3 mph - N/A   Light Drizzle
12:42 AM 55.4°F 55.4°F 100% 30.18 in 5.0 miles East 3.5 mph - N/A   Light Drizzle
12:46 AM 55.4°F 55.4°F 100% 30.18 in 8.0 miles East 4.6 mph - N/A   Overcast
12:51 AM 55.4°F 55.4°F 100% 30.18 in 10.0 miles ESE 4.6 mph - N/A   Overcast
12:56 AM 55.4°F 55.4°F 100% 30.18 in 10.0 miles ESE 4.6 mph - N/A   Overcast
12:58 AM 55.4°F 55.4°F 100% 30.19 in 10.0 miles ESE 4.6 mph - 0.00 in   Overcast
1:03 AM 55.4°F 55.4°F 100% 30.18 in 10.0 miles ESE 4.6 mph - N/A   Overcast
1:08 AM 55.4°F 55.4°F 100% 30.18 in 10.0 miles ESE 3.5 mph - N/A   Overcast
1:32 AM 55.4°F 55.4°F 100% 30.17 in 9.0 miles ESE 2.3 mph - N/A   Light Drizzle
1:42 AM 55.4°F 55.4°F 100% 30.17 in 10.0 miles East 2.3 mph - N/A   Overcast
1:58 AM 54.9°F 54.5°F 99% 30.19 in 10.0 miles West 1.2 mph - 0.00 in   Overcast
1:58 AM 54.5°F 54.1°F 99% 30.20 in 10.0 miles ENE 3.5 mph - 0.01 in   Overcast
2:38 AM 55.4°F 53.6°F 94% 30.18 in 10.0 miles ESE 3.5 mph - N/A   Overcast
2:43 AM 55.4°F 53.6°F 94% 30.18 in 10.0 miles East 1.2 mph - N/A   Overcast
2:58 AM 54.9°F 54.5°F 99% 30.19 in 10.0 miles East 1.2 mph - N/A   Overcast
3:13 AM 55.4°F 55.4°F 100% 30.19 in 10.0 miles North 1.2 mph - N/A   Overcast
3:24 AM 55.4°F 55.4°F 100% 30.19 in 10.0 miles NE 2.3 mph - N/A   Light Drizzle
3:33 AM 55.4°F 55.4°F 100% 30.19 in 5.0 miles NNE 2.3 mph - N/A   Light Drizzle
3:38 AM 55.4°F 55.4°F 100% 30.19 in 4.0 miles East 2.3 mph - N/A   Light Drizzle
3:43 AM 55.4°F 53.6°F 94% 30.19 in 4.0 miles ESE 2.3 mph - N/A   Light Drizzle
3:50 AM 55.4°F 53.6°F 94% 30.19 in 5.0 miles SE 2.3 mph - N/A   Overcast
3:57 AM 55.4°F 53.6°F 94% 30.19 in 7.0 miles SE 2.3 mph - N/A   Light Drizzle
3:58 AM 55.4°F 53.6°F 94% 30.20 in 7.0 miles SE 2.3 mph - 0.00 in   Light Drizzle
4:27 AM 55.4°F 53.6°F 94% 30.20 in 7.0 miles East 3.5 mph - N/A   Overcast
4:58 AM 54.7°F 54.3°F 99% 30.22 in 8.0 miles East 3.5 mph - 0.01 in   Overcast
5:38 AM 55.4°F 55.4°F 100% 30.21 in 10.0 miles East 2.3 mph - N/A   Overcast
5:58 AM 54.7°F 54.3°F 99% 30.22 in 7.0 miles ESE 3.5 mph - N/A   Overcast
6:58 AM 54.7°F 54.3°F 99% 30.22 in 10.0 miles ESE 2.3 mph - N/A   Overcast
7:58 AM 54.5°F 54.1°F 99% 30.22 in 10.0 miles Calm Calm - N/A   Mostly Cloudy
8:58 AM 56.3°F 55.9°F 99% 30.23 in 10.0 miles Calm Calm - N/A   Overcast
9:58 AM 58.8°F 57.2°F 94% 30.25 in 10.0 miles South 3.5 mph - N/A   Overcast
10:58 AM 60.8°F 57.7°F 90% 30.25 in 10.0 miles SW 2.3 mph - N/A   Overcast
11:58 AM 63.1°F 58.8°F 86% 30.25 in 10.0 miles Calm Calm - N/A   Light Drizzle
12:07 PM 64.4°F 59.0°F 83% 30.23 in 10.0 miles SSW 9.2 mph - N/A   Overcast
12:58 PM 65.5°F 58.3°F 77% 30.25 in 10.0 miles SW 10.4 mph - 0.00 in   Overcast
1:13 PM 66.2°F 59.0°F 78% 30.24 in 10.0 miles SSW 9.2 mph - N/A   Overcast
1:18 PM 66.2°F 59.0°F 78% 30.24 in 10.0 miles SSW 10.4 mph - N/A   Overcast
1:38 PM 66.2°F 59.0°F 78% 30.24 in 10.0 miles SW 13.8 mph - N/A   Overcast
1:43 PM 66.2°F 57.2°F 73% 30.24 in 10.0 miles SSW 12.7 mph - N/A   Overcast
1:58 PM 65.5°F 57.9°F 77% 30.26 in 10.0 miles SW 12.7 mph - N/A   Overcast
2:08 PM 64.4°F 57.2°F 77% 30.25 in 10.0 miles SSW 12.7 mph - N/A   Overcast
2:13 PM 64.4°F 57.2°F 77% 30.25 in 10.0 miles SSW 12.7 mph - N/A   Overcast
2:18 PM 66.2°F 57.2°F 73% 30.25 in 10.0 miles SSW 15.0 mph - N/A   Overcast
2:23 PM 66.2°F 57.2°F 73% 30.25 in 10.0 miles SSW 15.0 mph - N/A   Overcast
2:58 PM 65.8°F 57.7°F 75% 30.26 in 10.0 miles SSW 13.8 mph 24.2 mph N/A   Overcast
3:58 PM 65.7°F 57.2°F 74% 30.24 in 10.0 miles SSW 13.8 mph - N/A   Clear
4:58 PM 65.3°F 56.7°F 74% 30.24 in 10.0 miles South 9.2 mph 18.4 mph N/A   Overcast
5:44 PM 64.4°F 57.2°F 77% 30.25 in 9.0 miles SW 6.9 mph - N/A Rain Light Rain
5:58 PM 63.3°F 57.7°F 82% 30.27 in 10.0 miles SW 6.9 mph - 0.01 in Rain Light Rain
5:59 PM 62.6°F 57.2°F 82% 30.26 in 10.0 miles SW 6.9 mph - N/A   Overcast
6:58 PM 63.5°F 57.4°F 80% 30.26 in 10.0 miles South 11.5 mph - 0.00 in   Overcast
7:58 PM 64.4°F 56.5°F 75% 30.24 in 10.0 miles South 12.7 mph - N/A   Overcast
8:33 PM 66.2°F 57.2°F 73% 30.24 in 10.0 miles SW 12.7 mph 24.2 mph N/A   Overcast
8:42 PM 64.4°F 57.2°F 77% 30.25 in 7.0 miles WSW 10.4 mph - N/A Rain Rain
8:57 PM 62.6°F 59.0°F 88% 30.26 in 5.0 miles West 11.5 mph - N/A Rain Light Rain
8:58 PM 62.6°F 59.0°F 88% 30.27 in 5.0 miles West 11.5 mph - 0.02 in Rain Light Rain
9:07 PM 60.8°F 60.8°F 100% 30.26 in 5.0 miles WSW 8.1 mph - N/A   Overcast
9:19 PM 60.8°F 60.8°F 100% 30.26 in 5.0 miles WSW 6.9 mph - N/A Rain Light Rain
9:34 PM 60.8°F 60.8°F 100% 30.26 in 5.0 miles SW 6.9 mph - N/A Rain Light Rain
9:39 PM 60.8°F 60.8°F 100% 30.26 in 6.0 miles SW 5.8 mph - N/A Rain Light Rain
9:54 PM 60.8°F 60.8°F 100% 30.27 in 7.0 miles SW 8.1 mph - N/A Rain Light Rain
9:58 PM 60.6°F 60.3°F 99% 30.28 in 7.0 miles SW 8.1 mph - 0.03 in Rain Light Rain
10:08 PM 60.8°F 60.8°F 100% 30.27 in 5.0 miles SW 9.2 mph - N/A Rain Light Rain
10:33 PM 60.8°F 60.8°F 100% 30.26 in 5.0 miles SSW 10.4 mph - N/A Rain Light Rain
10:38 PM 60.8°F 60.8°F 100% 30.27 in 7.0 miles SW 11.5 mph - N/A Rain Light Rain
10:40 PM 60.8°F 60.8°F 100% 30.27 in 7.0 miles SSW 10.4 mph - N/A Rain Light Rain
10:45 PM 60.8°F 60.8°F 100% 30.27 in 8.0 miles SSW 10.4 mph - N/A Rain Light Rain
10:49 PM 60.8°F 60.8°F 100% 30.27 in 10.0 miles SW 9.2 mph - N/A   Overcast
10:58 PM 60.4°F 60.1°F 99% 30.28 in 10.0 miles SW 8.1 mph - 0.03 in   Overcast
Moon Phase
Nov. 04 Nov. 06 Nov. 13 Nov. 20 Nov. 28
Sunrise:06:58 AM (PST) Moon Rise:09:28 PM (PST)11/4
Sunset:04:48 PM (PST) Moon Set:11:49 AM (PST)11/4

Copyright © 2014 The Weather Underground, Inc.